Location: Newark
(41.8083°N, 72.2500°W)
Time: 19:21:11
(UTC+00:00)

Courier 1B - Pass Details

Date: 09 December 2021
Orbit: 962 x 1209 km, 28.3° (Epoch: 19 January)

Event Time Altitude Azimuth Distance (km) Brightness Sun altitude
Rises 20:05:39 0° 240° (WSW) 4,103 12.6 9.9°
Reaches altitude 10° 20:08:58 10° 229° (SW) 3,131 14.3 9.5°
Maximum altitude 20:15:21 28° 174° (S) 2,047 9.8 8.6°
Drops below altitude 10° 20:21:32 10° 119° (ESE) 3,037 9.9 7.7°
Sets 20:24:42 0° 108° (ESE) 3,960 10.4 7.3°
